Weather History for KGHW - March, 2014

Change the Weather History Date:

Monday, March 31, 2014

  Actual Average Record
Temperature  
Mean Temperature 35 °F -  
Max Temperature 44 °F 48 °F 76 °F (1963)
Min Temperature 24 °F 26 °F 7 °F (1954)
Degree Days  
Heating Degree Days 30    
Moisture  
Dew Point 35 °F    
Average Humidity 87    
Maximum Humidity 100    
Minimum Humidity 76    
Precipitation  
Precipitation 0.01 in - - ()
Sea Level Pressure  
Sea Level Pressure 29.51 in    
Wind  
Wind Speed 14 mph (NE)    
Max Wind Speed 28 mph    
Max Gust Speed 39 mph    
Visibility 7 miles    
Events Rain , Snow , Thunderstorm    
Averages and records for this station are not official NWS values.
T = Trace of Precipitation, MM = Missing Value Source: NWS Daily Summary

Daily Weather History Graph

Daily Weather History Graph

Search for Another Location

Airport or City:

Trip Planner

Search our weather history database for the weather conditions in past years. The results will help you decide how hot, cold, wet, or windy it might be!

Date:

Astronomy

Mar. 31, 2014 Rise Set
Actual Time 7:03 AM CDT 7:48 PM CDT
Civil Twilight 6:33 AM CDT 8:18 PM CDT
Nautical Twilight 5:57 AM CDT 8:54 PM CDT
Astronomical Twilight 5:20 AM CDT 9:31 PM CDT
Moon 7:24 AM CDT (3/31) 9:12 PM CDT (3/31)
Length of Visible Light 13h 45m
Length of Day
12h 45m
New Moon, 1% of the Moon is Illuminated
Mar 31
New Moon
Apr 7
First Quarter
Apr 15
Full
Apr 22
Last Quarter
Apr 29
New

Hourly Weather History & Observations

Time (CDT) Temp. Windchill Dew Point Humidity Pressure Visibility Wind Dir Wind Speed Gust Speed Precip Events Conditions
12:01 AM 39.2 °F 32.5 °F 33.8 °F 81% 29.73 in 7.0 mi NE 10.4 mph - N/A   Clear
12:21 AM 37.4 °F 29.8 °F 33.8 °F 87% 29.72 in 7.0 mi NE 11.5 mph - N/A   Clear
12:41 AM 39.2 °F 32.0 °F 35.6 °F 87% 29.71 in 7.0 mi ENE 11.5 mph - N/A   Clear
1:01 AM 37.4 °F 30.3 °F 33.8 °F 87% 29.71 in 7.0 mi NE 10.4 mph - N/A   Clear
1:21 AM 37.4 °F 30.3 °F 33.8 °F 87% 29.71 in 7.0 mi NE 10.4 mph - N/A   Clear
1:41 AM 37.4 °F 30.3 °F 33.8 °F 87% 29.70 in 7.0 mi NE 10.4 mph - N/A   Clear
2:01 AM 39.2 °F 31.6 °F 35.6 °F 87% 29.69 in 7.0 mi NE 12.7 mph - N/A   Clear
2:21 AM 39.2 °F 31.2 °F 35.6 °F 87% 29.67 in 7.0 mi ENE 13.8 mph - N/A   Clear
2:41 AM 39.2 °F 31.6 °F 35.6 °F 87% 29.66 in 7.0 mi ENE 12.7 mph - N/A   Clear
3:01 AM 39.2 °F 31.2 °F 35.6 °F 87% 29.65 in 7.0 mi ENE 13.8 mph - N/A   Clear
3:21 AM 39.2 °F 31.2 °F 35.6 °F 87% 29.65 in 7.0 mi ENE 13.8 mph - N/A   Clear
3:41 AM 39.2 °F 31.6 °F 35.6 °F 87% 29.64 in 7.0 mi ENE 12.7 mph - N/A   Clear
4:01 AM 39.2 °F 30.8 °F 35.6 °F 87% 29.63 in 7.0 mi ENE 15.0 mph - N/A   Clear
4:21 AM 39.2 °F 31.2 °F 35.6 °F 87% 29.63 in 7.0 mi ENE 13.8 mph - N/A   Clear
4:41 AM 37.4 °F 29.8 °F 35.6 °F 93% 29.63 in 7.0 mi ENE 11.5 mph - N/A   Clear
5:01 AM 37.4 °F 29.8 °F 33.8 °F 87% 29.61 in 7.0 mi ENE 11.5 mph - N/A   Clear
5:21 AM 37.4 °F 29.3 °F 33.8 °F 87% 29.61 in 7.0 mi ENE 12.7 mph - N/A   Clear
5:41 AM 37.4 °F 28.9 °F 33.8 °F 87% 29.60 in 7.0 mi ENE 13.8 mph - N/A   Clear
6:01 AM 37.4 °F 28.9 °F 33.8 °F 87% 29.58 in 7.0 mi ENE 13.8 mph - N/A   Clear
6:21 AM 37.4 °F 29.8 °F 33.8 °F 87% 29.58 in 7.0 mi ENE 11.5 mph 17.3 mph N/A   Clear
6:51 AM 37.4 °F 29.3 °F 33.8 °F 87% 29.59 in 10.0 mi ENE 12.7 mph - N/A   Clear
6:54 AM 37.4 °F 29.3 °F 33.8 °F 87% 29.59 in 10.0 mi ENE 12.7 mph - N/A   Clear
7:13 AM 37.4 °F 28.9 °F 33.8 °F 87% 29.59 in 10.0 mi ENE 13.8 mph - N/A   Clear
7:33 AM 37.4 °F 29.3 °F 33.8 °F 87% 29.58 in 7.0 mi ENE 12.7 mph - N/A   Clear
7:53 AM 37.4 °F 29.3 °F 33.8 °F 87% 29.58 in 10.0 mi ENE 12.7 mph - N/A   Clear
8:13 AM 37.4 °F 29.8 °F 33.8 °F 87% 29.58 in 10.0 mi ENE 11.5 mph - N/A   Clear
8:34 AM 39.2 °F 31.6 °F 33.8 °F 81% 29.57 in 10.0 mi ENE 12.7 mph - N/A   Scattered Clouds
8:53 AM 39.2 °F 31.2 °F 33.8 °F 81% 29.56 in 10.0 mi ENE 13.8 mph - N/A   Scattered Clouds
9:13 AM 39.2 °F 30.5 °F 33.8 °F 81% 29.55 in 10.0 mi ENE 16.1 mph - N/A   Clear
9:33 AM 39.2 °F 31.6 °F 33.8 °F 81% 29.55 in 10.0 mi ENE 12.7 mph - N/A   Clear
9:53 AM 41.0 °F 34.7 °F 35.6 °F 81% 29.55 in 10.0 mi ENE 10.4 mph - N/A   Scattered Clouds
10:14 AM 42.8 °F 35.8 °F 35.6 °F 76% 29.55 in 10.0 mi ENE 13.8 mph - N/A   Scattered Clouds
10:33 AM 44.6 °F 36.9 °F 37.4 °F 76% 29.54 in 10.0 mi ENE 18.4 mph - N/A   Scattered Clouds
10:53 AM 42.8 °F 34.8 °F 35.6 °F 76% 29.55 in 10.0 mi ENE 17.3 mph - N/A   Mostly Cloudy
11:13 AM 41.0 °F 32.5 °F 35.6 °F 81% 29.54 in 10.0 mi ENE 17.3 mph - N/A Rain Light Rain
11:33 AM 41.0 °F 34.7 °F 37.4 °F 87% 29.53 in 7.0 mi ENE 10.4 mph 18.4 mph N/A   Drizzle
11:53 AM 39.2 °F 30.5 °F 37.4 °F 93% 29.51 in 7.0 mi ENE 16.1 mph - N/A   Drizzle
12:13 PM 39.2 °F 30.8 °F 37.4 °F 93% 29.49 in 7.0 mi ENE 15.0 mph - N/A   Light Drizzle
12:34 PM 41.0 °F 32.5 °F 37.4 °F 87% 29.49 in 7.0 mi ENE 17.3 mph - N/A   Overcast
12:53 PM 42.8 °F 34.5 °F 39.2 °F 87% 29.48 in 7.0 mi ENE 18.4 mph 23.0 mph N/A   Mostly Cloudy
1:13 PM 42.8 °F 33.8 °F 39.2 °F 87% 29.47 in 7.0 mi ENE 21.9 mph - N/A Thunderstorm Scattered Clouds
1:33 PM 42.8 °F 34.5 °F 39.2 °F 87% 29.46 in 7.0 mi ENE 18.4 mph - N/A   Mostly Cloudy
1:53 PM 44.6 °F 36.9 °F 39.2 °F 81% 29.45 in 7.0 mi ENE 18.4 mph - N/A   Scattered Clouds
2:14 PM 44.6 °F 37.2 °F 39.2 °F 81% 29.45 in 7.0 mi East 17.3 mph - N/A   Mostly Cloudy
2:33 PM 44.6 °F 37.4 °F 39.2 °F 81% 29.45 in 7.0 mi East 16.1 mph 20.7 mph N/A   Scattered Clouds
2:53 PM 42.8 °F 35.1 °F 39.2 °F 87% 29.43 in 7.0 mi ENE 16.1 mph - N/A   Scattered Clouds
3:14 PM 42.8 °F 35.1 °F 39.2 °F 87% 29.42 in 7.0 mi ENE 16.1 mph 21.9 mph N/A   Scattered Clouds
3:33 PM 42.8 °F 34.5 °F 39.2 °F 87% 29.40 in 5.0 mi ENE 18.4 mph - N/A Thunderstorm Scattered Clouds
3:53 PM 42.8 °F 34.5 °F 39.2 °F 87% 29.39 in 5.0 mi ENE 18.4 mph 25.3 mph N/A   Clear
4:13 PM 41.0 °F 31.9 °F 37.4 °F 87% 29.38 in 4.0 mi ENE 19.6 mph 26.5 mph N/A   Clear
4:33 PM 41.0 °F 32.2 °F 37.4 °F 87% 29.37 in 4.0 mi ENE 18.4 mph - N/A Thunderstorm Clear
4:54 PM 41.0 °F 31.9 °F 37.4 °F 87% 29.36 in 5.0 mi ENE 19.6 mph 26.5 mph N/A   Scattered Clouds
5:13 PM 41.0 °F 32.2 °F 37.4 °F 87% 29.36 in 5.0 mi NE 18.4 mph 25.3 mph N/A Thunderstorm Clear
5:33 PM 39.2 °F 30.5 °F 37.4 °F 93% 29.35 in 5.0 mi NE 16.1 mph 21.9 mph N/A Rain Light Rain
5:53 PM 39.2 °F 29.6 °F 37.4 °F 93% 29.34 in 5.0 mi NE 19.6 mph - N/A Thunderstorm Scattered Clouds
6:13 PM 41.0 °F 32.5 °F 37.4 °F 87% 29.35 in 5.0 mi NNE 17.3 mph 26.5 mph N/A Thunderstorm Scattered Clouds
6:34 PM 39.2 °F 30.2 °F 37.4 °F 93% 29.36 in 4.0 mi NNE 17.3 mph - 0.01 in Rain , Thunderstorm Light Thunderstorms and Rain
6:53 PM 37.4 °F 26.9 °F 37.4 °F 100% 29.34 in 4.0 mi NNE 20.7 mph - 0.01 in   Scattered Clouds
7:14 PM 37.4 °F 28.5 °F 35.6 °F 93% 29.35 in 4.0 mi North 15.0 mph 23.0 mph N/A   Scattered Clouds
7:33 PM 37.4 °F 28.5 °F 35.6 °F 93% 29.36 in 5.0 mi North 15.0 mph 20.7 mph N/A Thunderstorm Scattered Clouds
7:53 PM 37.4 °F 27.5 °F 35.6 °F 93% 29.35 in 4.0 mi North 18.4 mph 25.3 mph N/A   Mostly Cloudy
8:14 PM 37.4 °F 28.2 °F 35.6 °F 93% 29.36 in 5.0 mi North 16.1 mph 20.7 mph N/A   Mostly Cloudy
8:33 PM 35.6 °F 25.2 °F 35.6 °F 100% 29.37 in 5.0 mi North 18.4 mph 25.3 mph N/A   Overcast
8:53 PM 35.6 °F 24.8 °F 33.8 °F 93% 29.38 in 7.0 mi North 19.6 mph 25.3 mph N/A   Overcast
9:13 PM 35.6 °F 25.5 °F 33.8 °F 93% 29.39 in 10.0 mi North 17.3 mph 28.8 mph N/A   Overcast
9:33 PM 35.6 °F 25.2 °F 33.8 °F 93% 29.41 in 10.0 mi North 18.4 mph 31.1 mph N/A   Overcast
9:54 PM 33.8 °F 21.3 °F 32.0 °F 93% 29.41 in 10.0 mi North 24.2 mph 32.2 mph N/A   Light Drizzle
10:13 PM 33.8 °F 21.6 °F 30.2 °F 87% 29.42 in 10.0 mi North 23.0 mph 32.2 mph N/A   Overcast
10:33 PM 32.0 °F 18.9 °F 30.2 °F 93% 29.43 in 10.0 mi North 24.2 mph 36.8 mph N/A   Overcast
10:53 PM 30.2 °F 16.8 °F 28.4 °F 93% 29.45 in 7.0 mi NNW 23.0 mph 32.2 mph N/A   Overcast
11:13 PM 26.6 °F 11.7 °F 24.8 °F 93% 29.46 in 7.0 mi NNW 24.2 mph 34.5 mph N/A   Overcast
11:34 PM 26.6 °F 11.7 °F 23.0 °F 86% 29.48 in 5.0 mi NNW 24.2 mph 39.1 mph N/A   Overcast
11:53 PM 24.8 °F 8.4 °F 21.2 °F 86% 29.50 in 3.0 mi NNW 27.6 mph 34.5 mph N/A Snow Light Snow